Regional Weather Roundup
Issued by NWS

Home | Current Version | Previous Version | Graphics & Text | Print | Product List | Glossary On
Versions: 1 2 3 4 5 6 7 8 9 10 11 12 13 14 15 16 17 18 19 20 21 22 23 24 25 26 27 28 29 30 31 32 33 34 35 36 37 38 39 40 41 42 43 44 45 46 47 48 49 50
000
ASUS43 KFSD 231010
RWRSD

WEATHER ROUNDUP FOR SOUTH DAKOTA
NATIONAL WEATHER SERVICE SIOUX FALLS SD
500 AM CDT WED MAY 23 2018

NOTE: "FAIR" INDICATES FEW OR NO CLOUDS BELOW 12,000 FEET WITH NO
SIGNIFICANT WEATHER AND/OR OBSTRUCTIONS TO VISIBILITY.


SDZ001>005-009-010-012>017-231100-
NORTHWEST AND NORTH CENTRAL SOUTH DAKOTA

CITY           SKY/WX    TMP DP  RH WIND       PRES   REMARKS
BUFFALO          N/A     59  54  83 NE13      29.84F
FAITH            N/A     60  60 100 S10       29.90R
MOBRIDGE       CLOUDY    66  60  81 S7        29.93F
$$

SDZ012>016-024>037-041>051-057-063-072>074-231100-
SOUTHWEST AND SOUTH CENTRAL SOUTH DAKOTA

CITY           SKY/WX    TMP DP  RH WIND       PRES   REMARKS
RAPID CTY ARPT PTCLDY    55  54  96 W3        29.88R
PIERRE         CLOUDY    63  62  97 NE8       29.88R
CUSTER         PTCLDY    47  45  93 N6        29.97R FOG
ELLSWORTH AFB  CLEAR     56  56 100 SW5       29.88R
PHILIP         CLOUDY    61  61 100 E9        29.85F
PINE RIDGE     MOCLDY    54  54 100 S5        29.89R
SPEARFISH      FAIR      55  50  82 W5        29.91R
WINNER         TSTM      67  62  84 NE6       29.88S
$$

SDZ004>011-016>023-039-040-231100-
NORTHEAST SOUTH DAKOTA

CITY           SKY/WX    TMP DP  RH WIND       PRES   REMARKS
ABERDEEN       MOCLDY    64  60  87 S5        29.98R
WATERTOWN      HVY RAIN  64  62  93 SE12      29.98F FOG
BROOKINGS      CLOUDY    65  62  90 SE18      29.99F
SISSETON         N/A     61  57  87 SE3       29.99S
$$

SDZ017-020-022-023-036>040-048>070-231100-
SOUTHEAST SOUTH DAKOTA

CITY           SKY/WX    TMP DP  RH WIND       PRES   REMARKS
SIOUX FALLS    PTCLDY    64  62  93 E6        29.99R
HURON          CLOUDY    65  63  93 E7        29.94F
CHAMBERLAIN    MOCLDY    66  66 100 E8        29.89F
MITCHELL       CLOUDY    63  62  97 N6        29.94R FOG
YANKTON        PTCLDY    66  63  90 E7        29.96R
$$

ABBREVIATIONS USED IN REMARKS
   TC - TEMPERATURE IN CELSIUS
  WCI - WIND CHILL INDEX
   HX - HEAT INDEX
  VSB - VISIBILITY





USA.gov is the U.S. government's official web portal to all federal, state and local government web resources and services.